Simultaneous Nadir Overpasses (SNOs) Predictions

Prediction of SNOs over PacNW region [( 10.00, 139.50) to ( 22.70, 165.60)] between AQUA and NPP Satellites:

Table of predicted SNOs over PacNW region for the next 30.0 days since TLE Epoch: 7/25/2014
Index Date (AQUA) Time (AQUA) AQUA Lat,Lon Date (NPP) Time (NPP) NPP Lat,Lon Distance(km) Time Diff (sec)
1 07/30/2014 02:39:07 10.08, 162.68 07/30/2014 02:40:38 9.80, 161.43 140.93 91
2 08/01/2014 16:20:15 15.23, 141.10 08/01/2014 16:18:12 15.26, 140.98 12.60 123
3 08/07/2014 03:28:38 10.06, 150.30 08/07/2014 03:31:35 9.75, 148.75 172.90 177
4 08/09/2014 15:32:19 10.02, 152.29 08/09/2014 15:29:10 9.96, 152.44 17.82 189
5 08/15/2014 02:39:15 10.09, 162.63 08/15/2014 02:41:04 9.84, 161.42 135.58 109
6 08/17/2014 16:20:04 16.32, 141.29 08/17/2014 16:18:19 16.33, 141.24 6.10 105
